Regional Weather Roundup
Issued by NWS Cleveland, OH

Home | Current Version | Previous Version | Graphics & Text | Print | Product List | Glossary On
Versions: 1 2 3 4 5 6 7 8 9 10 11 12 13 14 15 16 17 18 19 20 21 22 23 24 25 26 27 28 29 30 31 32 33 34 35 36 37 38 39 40 41 42 43 44 45 46 47 48 49 50
000
ASUS41 KCLE 172102
RWRCLE
OHIO REGIONAL WEATHER ROUNDUP
NATIONAL WEATHER SERVICE CLEVELAND, OH
400 PM EST WED DEC 17 2014

NOTE: "FAIR" INDICATES FEW OR NO CLOUDS BELOW 12,000 FEET WITH NO
SIGNIFICANT WEATHER AND/OR OBSTRUCTIONS TO VISIBILITY.

OHZ001>008-015>018-024>027-034-035-043-044-172200-
   NORTHWEST OHIO

CITY           SKY/WX    TMP DP  RH WIND       PRES   REMARKS
DEFIANCE       NOT AVBL
FINDLAY        CLOUDY    29  23  78 W17       30.13S WCI  17
TOLEDO EXPRESS CLOUDY    29  21  72 W14G26    30.12S WCI  18
TOLEDO EXEC    CLOUDY    30  22  72 W20       30.13R WCI  17
LIMA           CLOUDY    31  21  66 W15       30.15S WCI  20
$$

OHZ009>014-019>023-028>033-038-089-172200-
   NORTHEAST OHIO

CITY           SKY/WX    TMP DP  RH WIND       PRES   REMARKS
CLE-HOPKINS    CLOUDY    31  23  72 W14       30.12R WCI  21
CLE-LAKEFRONT  CLOUDY    32  25  75 W23G29    30.09R WCI  19
CUY CO. ARPT   CLOUDY    34  27  75 W14G23    30.08R WCI  24
LORAIN-ELYRIA  CLOUDY    30  24  78 W16       30.10S WCI  19
ASHTABULA      CLOUDY    32  24  72 W16G25    30.05S WCI  21
AKRON-CANTON   CLOUDY    31  22  69 W13G23    30.08R WCI  21
WOOSTER        CLOUDY    30  24  78 W14       30.10R WCI  19
MANSFIELD      CLOUDY    29  23  78 W14G21    30.10R WCI  18
YOUNGSTOWN     FLURRIES  31  23  72 W13       30.06R WCI  21
$$

OHZ042-051>053-060>062-070>072-077>081-172200-
  SOUTHWEST OHIO

CITY           SKY/WX    TMP DP  RH WIND       PRES   REMARKS
CINC-COVINGTON CLOUDY    31  22  69 W8        30.20S WCI  23
CINC-LUNKEN    CLOUDY    32  24  72 SW12      30.23S WCI  23
HAMILTON       CLOUDY    31  24  75 NW9       30.22S WCI  23
DAYTON         CLOUDY    28  23  81 NW14      30.19S WCI  17
WRIGHT-PAT AFB NOT AVBL
DAYTON GENERAL CLOUDY    29  23  78 NW12      30.17S WCI  19
WILMINGTON     CLOUDY    30  24  78 W10       30.17S WCI  21
$$

OHZ036-037-039>041-045>050-054>059-063>069-073>076-082>088-172200-
  CENTRAL AND SOUTHEAST OHIO

CITY           SKY/WX    TMP DP  RH WIND       PRES   REMARKS
COLUMBUS       CLOUDY    30  24  78 W13       30.16S WCI  20
OSU AIRPORT    CLOUDY    29  23  78 W15       30.16S WCI  18
BOLTON FIELD   NOT AVBL
RICKENBACK AFB NOT AVBL
NEWARK         CLOUDY    32  24  72 W12       30.14S WCI  23
MARION         CLOUDY    29  23  78 W10G22    30.15R WCI  20
LANCASTER      CLOUDY    31  24  75 W9        30.17S WCI  23
ZANESVILLE     CLOUDY    31  24  75 W9        30.13F WCI  23
NEW PHILLY     CLOUDY    32  23  69 W9G22     30.13R WCI  24
$$



USA.gov is the U.S. government's official web portal to all federal, state and local government web resources and services.